Location: City of Moscow
(46.7306°N, 116.9989°W)
Time: 18:45:36
(UTC+00:00)

MOS 1 Rocket - Pass Details

Date: 11 December 2025
Orbit: 609 x 814 km, 97.4° (Epoch: 15 January)

Event Time Altitude Azimuth Distance (km) Brightness Sun altitude
Rises 14:15:14 0° 15° (NNE) 3,350 6.7 -11.1°
Reaches altitude 10° 14:17:38 10° 18° (NNE) 2,414 6.0 -10.7°
Maximum altitude 14:22:59 63° 100° (E) 899 4.2 -9.9°
Drops below altitude 10° 14:28:09 10° 181° (S) 2,343 6.3 -9.1°
Sets 14:30:27 0° 185° (S) 3,244 7.0 -8.7°
